Tracking 28081 objects as of 27-Sep-2023
HD Live streaming from Space Station
objects crossing your sky now

GALILEO 27 (223)

Track GALILEO 27 (223) now!
GALILEO 27 (223) is classified as:


NORAD ID: 49809
Int'l Code: 2021-117A
Perigee: 23,218.8 km
Apogee: 23,239.5 km
Inclination: 57.3 °
Period: 844.7 minutes
Semi major axis: 29600 km
RCS: Unknown
Launch date: December 5, 2021
Source: France (FR)
Launch site: FRENCH GUIANA (FRGUI)
Your satellite tracking list
Your tracking list is empty




NASA's NSSDC Master Catalog

Two Line Element Set (TLE):
1 49809U 21116A   23267.41475998 -.00000085  00000-0  00000-0 0  9992
2 49809  57.2810   8.5598 0003498 188.0129 190.8503  1.70475882 11193
Source of the keplerian elements: AFSPC